When you browse on this site, cookies collect data to enhance your experience and personalize the content and advertising you see.
Visit our Privacy Policy to learn more. By continuing to use the site, you agree to this use of cookies and data.
  • In United Kingdom
  • List of Countries
  • For 7 days
  • Water Temperature
  • Weather Map
  • Weather Widgets
  • user-avatar
    Login

    Hourly Weather Hameln

    Today, 25 August, Sunday

    Time Temperature Precipitation Wind Pressure Humidity
    00:00 +20°C° 0 mm 1 mps 755 mmHg 76%
    01:00 +20°C° 0 mm 1 mps 755 mmHg 79%
    02:00 +19°C° 0 mm 1 mps 755 mmHg 81%
    03:00 +19°C° 0 mm 1 mps 755 mmHg 83%
    04:00 +19°C° 0 mm 1 mps 755 mmHg 85%
    05:00 +19°C° 0 mm 1 mps 755 mmHg 83%
    06:00 +20°C° 0 mm 1 mps 755 mmHg 81%
    07:00 +21°C° 0 mm 1 mps 755 mmHg 79%
    08:00 +23°C° 0.1 mm 2 mps 755 mmHg 74%
    09:00 +25°C° 0.1 mm 2 mps 755 mmHg 68%
    10:00 +27°C° 0.1 mm 2 mps 755 mmHg 62%
    11:00 +28°C° 0 mm 2 mps 755 mmHg 59%
    12:00 +29°C° 0 mm 2 mps 755 mmHg 55%
    13:00 +31°C° 0 mm 2 mps 754 mmHg 51%
    14:00 +31°C° 0.1 mm 2 mps 754 mmHg 51%
    15:00 +31°C° 0.1 mm 2 mps 754 mmHg 51%
    16:00 +31°C° 0.1 mm 2 mps 754 mmHg 50%
    17:00 +30°C° 0.3 mm 2 mps 754 mmHg 56%
    18:00 +28°C° 0.3 mm 2 mps 754 mmHg 62%
    19:00 +27°C° 0.3 mm 2 mps 754 mmHg 68%
    20:00 +26°C° 0.5 mm 2 mps 754 mmHg 71%
    21:00 +25°C° 0.5 mm 2 mps 754 mmHg 73%
    22:00 +24°C° 0.5 mm 2 mps 754 mmHg 76%
    23:00 +23°C° 0.3 mm 1 mps 754 mmHg 77%

    Tomorrow, 26 August, Monday

    Time Temperature Precipitation Wind Pressure Humidity
    00:00 +23°C° 0.3 mm 1 mps 754 mmHg 79%
    01:00 +22°C° 0.3 mm 1 mps 754 mmHg 81%
    02:00 +22°C° 0.1 mm 1 mps 754 mmHg 82%
    03:00 +22°C° 0.1 mm 1 mps 754 mmHg 84%
    04:00 +21°C° 0.1 mm 1 mps 754 mmHg 85%
    05:00 +22°C° 0 mm 1 mps 754 mmHg 83%
    06:00 +22°C° 0 mm 1 mps 754 mmHg 81%
    07:00 +23°C° 0 mm 1 mps 754 mmHg 79%
    08:00 +25°C° 0 mm 1 mps 754 mmHg 72%
    09:00 +27°C° 0 mm 1 mps 754 mmHg 66%
    10:00 +29°C° 0 mm 2 mps 754 mmHg 59%
    11:00 +30°C° 0 mm 2 mps 754 mmHg 55%
    12:00 +31°C° 0 mm 2 mps 754 mmHg 50%
    13:00 +32°C° 0 mm 2 mps 753 mmHg 46%
    14:00 +32°C° 0 mm 2 mps 753 mmHg 46%
    15:00 +33°C° 0 mm 3 mps 753 mmHg 45%
    16:00 +33°C° 0 mm 3 mps 753 mmHg 45%
    17:00 +31°C° 0 mm 2 mps 752 mmHg 51%
    18:00 +29°C° 0 mm 2 mps 752 mmHg 57%
    19:00 +27°C° 0 mm 2 mps 752 mmHg 62%
    20:00 +26°C° 0.5 mm 1 mps 752 mmHg 66%
    21:00 +25°C° 0.5 mm 1 mps 753 mmHg 70%
    22:00 +24°C° 0.5 mm 1 mps 753 mmHg 74%
    23:00 +24°C° 0.3 mm 1 mps 753 mmHg 76%

    Day after tomorrow, 27 August, Tuesday

    Time Temperature Precipitation Wind Pressure Humidity
    00:00 +21°C° 0.3 mm 0 mps 753 mmHg 79%
    01:00 +21°C° 0.3 mm 0 mps 753 mmHg 81%
    02:00 +20°C° 0.1 mm 0 mps 753 mmHg 82%
    03:00 +22°C° 0.1 mm 1 mps 752 mmHg 83%
    04:00 +22°C° 0.1 mm 1 mps 752 mmHg 84%
    05:00 +22°C° 0 mm 1 mps 752 mmHg 82%
    06:00 +23°C° 0 mm 1 mps 752 mmHg 81%
    07:00 +23°C° 0 mm 1 mps 753 mmHg 80%
    08:00 +25°C° 0 mm 1 mps 753 mmHg 73%
    09:00 +27°C° 0 mm 1 mps 753 mmHg 66%
    10:00 +29°C° 0 mm 1 mps 753 mmHg 59%
    11:00 +30°C° 0 mm 1 mps 753 mmHg 55%
    12:00 +31°C° 0 mm 1 mps 753 mmHg 50%
    13:00 +33°C° 0 mm 1 mps 753 mmHg 45%
    14:00 +33°C° 0 mm 1 mps 752 mmHg 44%
    15:00 +33°C° 0 mm 1 mps 752 mmHg 43%
    16:00 +33°C° 0 mm 1 mps 752 mmHg 41%
    17:00 +32°C° 0 mm 1 mps 752 mmHg 47%
    18:00 +30°C° 0 mm 1 mps 751 mmHg 53%
    19:00 +28°C° 0 mm 1 mps 751 mmHg 59%
    20:00 +27°C° 0 mm 1 mps 752 mmHg 62%
    21:00 +26°C° 0 mm 1 mps 752 mmHg 65%
    22:00 +23°C° 0 mm 0 mps 752 mmHg 68%
    23:00 +23°C° 0.2 mm 0 mps 752 mmHg 69%

    28 August, Wednesday

    Time Temperature Precipitation Wind Pressure Humidity
    00:00 +22°C° 0.2 mm 0 mps 752 mmHg 70%
    01:00 +22°C° 0.2 mm 0 mps 751 mmHg 72%
    02:00 +24°C° 0 mm 1 mps 751 mmHg 73%
    03:00 +23°C° 0 mm 1 mps 751 mmHg 75%
    04:00 +23°C° 0 mm 1 mps 751 mmHg 76%
    05:00 +23°C° 0 mm 1 mps 751 mmHg 75%
    06:00 +24°C° 0 mm 1 mps 751 mmHg 75%
    07:00 +24°C° 0 mm 1 mps 750 mmHg 74%
    08:00 +26°C° 0 mm 1 mps 750 mmHg 67%
    09:00 +28°C° 0 mm 1 mps 750 mmHg 60%
    10:00 +30°C° 0 mm 1 mps 750 mmHg 53%
    11:00 +31°C° 0 mm 1 mps 750 mmHg 50%
    12:00 +32°C° 0 mm 1 mps 750 mmHg 46%
    13:00 +33°C° 0 mm 1 mps 749 mmHg 43%
    14:00 +33°C° 0 mm 1 mps 749 mmHg 44%
    15:00 +32°C° 0 mm 1 mps 749 mmHg 45%
    16:00 +32°C° 0 mm 1 mps 749 mmHg 46%
    17:00 +31°C° 0 mm 1 mps 748 mmHg 50%
    18:00 +29°C° 0 mm 1 mps 748 mmHg 53%
    19:00 +28°C° 0 mm 1 mps 748 mmHg 57%
    20:00 +27°C° 0 mm 1 mps 748 mmHg 58%
    21:00 +26°C° 0 mm 1 mps 748 mmHg 59%
    22:00 +25°C° 0 mm 1 mps 748 mmHg 60%
    23:00 +25°C° 0 mm 1 mps 748 mmHg 61%

    29 August, Thursday

    Time Temperature Precipitation Wind Pressure Humidity
    00:00 +24°C° 0 mm 2 mps 748 mmHg 62%
    01:00 +24°C° 0 mm 2 mps 748 mmHg 62%
    02:00 +23°C° 0.1 mm 2 mps 748 mmHg 66%
    03:00 +23°C° 0.1 mm 2 mps 748 mmHg 69%
    04:00 +22°C° 0.1 mm 1 mps 748 mmHg 72%
    05:00 +21°C° 0 mm 2 mps 749 mmHg 73%
    06:00 +23°C° 0 mm 2 mps 749 mmHg 74%
    07:00 +23°C° 0 mm 2 mps 749 mmHg 75%
    08:00 +24°C° 0 mm 3 mps 749 mmHg 71%
    09:00 +26°C° 0 mm 3 mps 750 mmHg 67%
    10:00 +27°C° 0 mm 4 mps 750 mmHg 64%
    11:00 +28°C° 0 mm 4 mps 750 mmHg 60%
    12:00 +28°C° 0 mm 4 mps 750 mmHg 57%
    13:00 +29°C° 0 mm 4 mps 751 mmHg 54%
    14:00 +28°C° 0.1 mm 4 mps 751 mmHg 56%
    15:00 +28°C° 0.1 mm 3 mps 751 mmHg 58%
    16:00 +27°C° 0.1 mm 3 mps 751 mmHg 60%
    17:00 +26°C° 0 mm 3 mps 752 mmHg 64%
    18:00 +25°C° 0 mm 2 mps 752 mmHg 68%
    19:00 +24°C° 0 mm 2 mps 752 mmHg 71%
    20:00 +23°C° 0 mm 2 mps 753 mmHg 77%
    21:00 +21°C° 0 mm 2 mps 753 mmHg 83%
    22:00 +20°C° 0 mm 2 mps 754 mmHg 89%
    23:00 +19°C° 0 mm 2 mps 754 mmHg 90%

    30 August, Friday

    Time Temperature Precipitation Wind Pressure Humidity
    00:00 +19°C° 0 mm 2 mps 754 mmHg 90%
    01:00 +19°C° 0 mm 3 mps 754 mmHg 91%
    02:00 +18°C° 0 mm 2 mps 755 mmHg 92%
    03:00 +17°C° 0 mm 2 mps 755 mmHg 94%
    04:00 +18°C° 0 mm 1 mps 755 mmHg 95%
    05:00 +18°C° 0 mm 1 mps 755 mmHg 93%
    06:00 +17°C° 0 mm 2 mps 755 mmHg 92%
    07:00 +16°C° 0 mm 2 mps 756 mmHg 91%
    08:00 +18°C° 0 mm 2 mps 756 mmHg 81%
    09:00 +19°C° 0 mm 2 mps 756 mmHg 72%
    10:00 +20°C° 0 mm 3 mps 756 mmHg 63%
    11:00 +21°C° 0 mm 3 mps 756 mmHg 56%
    12:00 +22°C° 0 mm 3 mps 756 mmHg 50%
    13:00 +24°C° 0 mm 3 mps 756 mmHg 43%
    14:00 +24°C° 0 mm 3 mps 756 mmHg 43%
    15:00 +24°C° 0 mm 3 mps 756 mmHg 43%
    16:00 +24°C° 0 mm 3 mps 755 mmHg 42%
    17:00 +21°C° 0 mm 2 mps 755 mmHg 48%
    18:00 +19°C° 0 mm 2 mps 755 mmHg 54%
    19:00 +19°C° 0 mm 1 mps 755 mmHg 59%
    20:00 +18°C° 0 mm 1 mps 755 mmHg 62%
    21:00 +16°C° 0 mm 1 mps 756 mmHg 64%
    22:00 +14°C° 0 mm 0 mps 756 mmHg 66%
    23:00 +15°C° 0 mm 1 mps 755 mmHg 67%
    Show more